owner,sensor,date,latitude,longitude,vertical_datum,wind_speed,wind_to_direction,wind_speed_of_gust,qcFlag 
DISL,ioos:station:DISL:MBLA:1,2009-03-01T00:00:00Z,30.4367,-88.0117,14.2,14.39,310.6,-9999.0,'1111122,1111122,1111122' 
DISL,ioos:station:DISL:MBLA:1,2009-03-01T00:30:00Z,30.4367,-88.0117,14.2,14.59,314.9,-9999.0,'1111122,1111122,1111122' 
DISL,ioos:station:DISL:MBLA:1,2009-03-01T01:00:00Z,30.4367,-88.0117,14.2,13.57,312.2,-9999.0,'1111122,1111122,1111122' 
DISL,ioos:station:DISL:MBLA:1,2009-03-01T01:30:00Z,30.4367,-88.0117,14.2,11.6,317.2,-9999.0,'1111122,1111122,1111122' 
DISL,ioos:station:DISL:MBLA:1,2009-03-01T02:00:00Z,30.4367,-88.0117,14.2,10.58,317.0,-9999.0,'1111122,1111122,1111122' 
DISL,ioos:station:DISL:MBLA:1,2009-03-01T02:30:00Z,30.4367,-88.0117,14.2,15.79,310.4,-9999.0,'1111122,1111122,1111122' 
DISL,ioos:station:DISL:MBLA:1,2009-03-01T03:00:00Z,30.4367,-88.0117,14.2,16.14,316.8,-9999.0,'1111122,1111122,1111122' 
DISL,ioos:station:DISL:MBLA:1,2009-03-01T03:30:00Z,30.4367,-88.0117,14.2,15.84,316.7,-9999.0,'1111122,1111122,1111122' 
DISL,ioos:station:DISL:MBLA:1,2009-03-01T04:00:00Z,30.4367,-88.0117,14.2,15.1,318.2,-9999.0,'1111122,1111122,1111122' 
DISL,ioos:station:DISL:MBLA:1,2009-03-01T04:30:00Z,30.4367,-88.0117,14.2,15.84,312.7,-9999.0,'1111122,1111122,1111122' 
DISL,ioos:station:DISL:MBLA:1,2009-03-01T05:00:00Z,30.4367,-88.0117,14.2,14.62,319.5,-9999.0,'1111122,1111122,1111122' 
DISL,ioos:station:DISL:MBLA:1,2009-03-01T05:30:00Z,30.4367,-88.0117,14.2,14.8,320.3,-9999.0,'1111122,1111122,1111122' 
DISL,ioos:station:DISL:MBLA:1,2009-03-01T06:00:00Z,30.4367,-88.0117,14.2,11.42,323.5,-9999.0,'1111122,1111122,1111122' 
DISL,ioos:station:DISL:MBLA:1,2009-03-01T06:30:00Z,30.4367,-88.0117,14.2,11.37,306.8,-9999.0,'1111122,1111122,1111122' 
DISL,ioos:station:DISL:MBLA:1,2009-03-01T07:00:00Z,30.4367,-88.0117,14.2,11.77,322.5,-9999.0,'1111122,1111122,1111122' 
DISL,ioos:station:DISL:MBLA:1,2009-03-01T07:30:00Z,30.4367,-88.0117,14.2,10.48,314.9,-9999.0,'1111122,1111122,1111122' 
DISL,ioos:station:DISL:MBLA:1,2009-03-01T08:00:00Z,30.4367,-88.0117,14.2,12.73,300.3,-9999.0,'1111122,1111122,1111122' 
DISL,ioos:station:DISL:MBLA:1,2009-03-01T08:30:00Z,30.4367,-88.0117,14.2,16.01,315.1,-9999.0,'1111122,1111122,1111122' 
DISL,ioos:station:DISL:MBLA:1,2009-03-01T09:00:00Z,30.4367,-88.0117,14.2,15.04,308.3,-9999.0,'1111122,1111122,1111122' 
DISL,ioos:station:DISL:MBLA:1,2009-03-01T09:30:00Z,30.4367,-88.0117,14.2,15.4,308.8,-9999.0,'1111122,1111122,1111122' 
DISL,ioos:station:DISL:MBLA:1,2009-03-01T10:00:00Z,30.4367,-88.0117,14.2,13.24,300.5,-9999.0,'1111122,1111122,1111122' 
DISL,ioos:station:DISL:MBLA:1,2009-03-01T10:30:00Z,30.4367,-88.0117,14.2,14.52,306.8,-9999.0,'1111122,1111122,1111122' 
DISL,ioos:station:DISL:MBLA:1,2009-03-01T11:00:00Z,30.4367,-88.0117,14.2,17.21,307.7,-9999.0,'1111122,1111122,1111122' 
DISL,ioos:station:DISL:MBLA:1,2009-03-01T11:30:00Z,30.4367,-88.0117,14.2,15.9,307.9,-9999.0,'1111122,1111122,1111122' 
DISL,ioos:station:DISL:MBLA:1,2009-03-01T12:00:00Z,30.4367,-88.0117,14.2,15.35,311.4,-9999.0,'1111122,1111122,1111122' 
DISL,ioos:station:DISL:MBLA:1,2009-03-01T12:30:00Z,30.4367,-88.0117,14.2,16.22,310.9,-9999.0,'1111122,1111122,1111122' 
DISL,ioos:station:DISL:MBLA:1,2009-03-01T13:00:00Z,30.4367,-88.0117,14.2,16.38,307.1,-9999.0,'1111122,1111122,1111122' 
DISL,ioos:station:DISL:MBLA:1,2009-03-01T13:30:00Z,30.4367,-88.0117,14.2,16.79,305.3,-9999.0,'1111122,1111122,1111122' 
DISL,ioos:station:DISL:MBLA:1,2009-03-01T14:00:00Z,30.4367,-88.0117,14.2,15.49,318.3,-9999.0,'1111122,1111122,1111122' 
DISL,ioos:station:DISL:MBLA:1,2009-03-01T14:30:00Z,30.4367,-88.0117,14.2,13.91,311.5,-9999.0,'1111122,1111122,1111122' 
DISL,ioos:station:DISL:MBLA:1,2009-03-01T15:00:00Z,30.4367,-88.0117,14.2,15.56,314.7,-9999.0,'1111122,1111122,1111122' 
DISL,ioos:station:DISL:MBLA:1,2009-03-01T15:30:00Z,30.4367,-88.0117,14.2,13.47,311.4,-9999.0,'1111122,1111122,1111122' 
DISL,ioos:station:DISL:MBLA:1,2009-03-01T16:00:00Z,30.4367,-88.0117,14.2,13.19,309.2,-9999.0,'1111122,1111122,1111122' 
DISL,ioos:station:DISL:MBLA:1,2009-03-01T16:30:00Z,30.4367,-88.0117,14.2,13.64,312.3,-9999.0,'1111122,1111122,1111122' 
DISL,ioos:station:DISL:MBLA:1,2009-03-01T17:00:00Z,30.4367,-88.0117,14.2,13.52,313.3,-9999.0,'1111122,1111122,1111122' 
DISL,ioos:station:DISL:MBLA:1,2009-03-01T17:30:00Z,30.4367,-88.0117,14.2,12.25,309.2,-9999.0,'1111122,1111122,1111122' 
DISL,ioos:station:DISL:MBLA:1,2009-03-01T18:00:00Z,30.4367,-88.0117,14.2,12.4,320.3,-9999.0,'1111122,1111122,1111122' 
DISL,ioos:station:DISL:MBLA:1,2009-03-01T18:30:00Z,30.4367,-88.0117,14.2,12.13,317.6,-9999.0,'1111122,1111122,1111122' 
DISL,ioos:station:DISL:MBLA:1,2009-03-01T19:00:00Z,30.4367,-88.0117,14.2,11.85,307.1,-9999.0,'1111122,1111122,1111122' 
DISL,ioos:station:DISL:MBLA:1,2009-03-01T19:30:00Z,30.4367,-88.0117,14.2,11.63,310.9,-9999.0,'1111122,1111122,1111122' 
DISL,ioos:station:DISL:MBLA:1,2009-03-01T20:00:00Z,30.4367,-88.0117,14.2,12.68,310.2,-9999.0,'1111122,1111122,1111122' 
DISL,ioos:station:DISL:MBLA:1,2009-03-01T20:30:00Z,30.4367,-88.0117,14.2,12.02,320.9,-9999.0,'1111122,1111122,1111122' 
DISL,ioos:station:DISL:MBLA:1,2009-03-01T21:00:00Z,30.4367,-88.0117,14.2,13.03,327.9,-9999.0,'1111122,1111122,1111122' 
DISL,ioos:station:DISL:MBLA:1,2009-03-01T21:30:00Z,30.4367,-88.0117,14.2,12.94,322.7,-9999.0,'1111122,1111122,1111122' 
DISL,ioos:station:DISL:MBLA:1,2009-03-01T22:00:00Z,30.4367,-88.0117,14.2,12.11,320.2,-9999.0,'1111122,1111122,1111122' 
DISL,ioos:station:DISL:MBLA:1,2009-03-01T22:30:00Z,30.4367,-88.0117,14.2,14.3,322.9,-9999.0,'1111122,1111122,1111122' 
DISL,ioos:station:DISL:MBLA:1,2009-03-01T23:00:00Z,30.4367,-88.0117,14.2,14.1,321.3,-9999.0,'1111122,1111122,1111122' 
DISL,ioos:station:DISL:MBLA:1,2009-03-01T23:30:00Z,30.4367,-88.0117,14.2,13.05,320.4,-9999.0,'1111122,1111122,1111122' 
DISL,ioos:station:DISL:MBLA:1,2009-03-02T00:00:00Z,30.4367,-88.0117,14.2,14.39,326.4,-9999.0,'1111122,1111122,1111122' 
DISL,ioos:station:DISL:MBLA:1,2009-03-02T00:30:00Z,30.4367,-88.0117,14.2,12.13,320.2,-9999.0,'1111122,1111122,1111122' 
DISL,ioos:station:DISL:MBLA:1,2009-03-02T01:00:00Z,30.4367,-88.0117,14.2,12.27,317.9,-9999.0,'1111122,1111122,1111122' 
DISL,ioos:station:DISL:MBLA:1,2009-03-02T01:30:00Z,30.4367,-88.0117,14.2,12.49,316.6,-9999.0,'1111122,1111122,1111122' 
DISL,ioos:station:DISL:MBLA:1,2009-03-02T02:00:00Z,30.4367,-88.0117,14.2,14.19,325.2,-9999.0,'1111122,1111122,1111122' 
DISL,ioos:station:DISL:MBLA:1,2009-03-02T02:30:00Z,30.4367,-88.0117,14.2,12.91,324.9,-9999.0,'1111122,1111122,1111122' 
DISL,ioos:station:DISL:MBLA:1,2009-03-02T03:00:00Z,30.4367,-88.0117,14.2,12.56,328.9,-9999.0,'1111122,1111122,1111122' 
DISL,ioos:station:DISL:MBLA:1,2009-03-02T03:30:00Z,30.4367,-88.0117,14.2,14.31,334.6,-9999.0,'1111122,1111122,1111122' 
DISL,ioos:station:DISL:MBLA:1,2009-03-02T04:00:00Z,30.4367,-88.0117,14.2,13.64,332.4,-9999.0,'1111122,1111122,1111122' 
DISL,ioos:station:DISL:MBLA:1,2009-03-02T04:30:00Z,30.4367,-88.0117,14.2,13.72,332.8,-9999.0,'1111122,1111122,1111122' 
DISL,ioos:station:DISL:MBLA:1,2009-03-02T05:00:00Z,30.4367,-88.0117,14.2,14.15,332.3,-9999.0,'1111122,1111122,1111122' 
DISL,ioos:station:DISL:MBLA:1,2009-03-02T05:30:00Z,30.4367,-88.0117,14.2,13.19,334.8,-9999.0,'1111122,1111122,1111122' 
DISL,ioos:station:DISL:MBLA:1,2009-03-02T06:00:00Z,30.4367,-88.0117,14.2,13.61,334.5,-9999.0,'1111122,1111122,1111122' 
DISL,ioos:station:DISL:MBLA:1,2009-03-02T06:30:00Z,30.4367,-88.0117,14.2,13.59,342.9,-9999.0,'1111122,1111122,1111122' 
DISL,ioos:station:DISL:MBLA:1,2009-03-02T07:00:00Z,30.4367,-88.0117,14.2,14.45,341.1,-9999.0,'1111122,1111122,1111122' 
DISL,ioos:station:DISL:MBLA:1,2009-03-02T07:30:00Z,30.4367,-88.0117,14.2,14.44,341.4,-9999.0,'1111122,1111122,1111122' 
DISL,ioos:station:DISL:MBLA:1,2009-03-02T08:00:00Z,30.4367,-88.0117,14.2,13.63,340.9,-9999.0,'1111122,1111122,1111122' 
DISL,ioos:station:DISL:MBLA:1,2009-03-02T08:30:00Z,30.4367,-88.0117,14.2,13.36,341.8,-9999.0,'1111122,1111122,1111122' 
DISL,ioos:station:DISL:MBLA:1,2009-03-02T09:00:00Z,30.4367,-88.0117,14.2,12.9,343.3,-9999.0,'1111122,1111122,1111122' 
DISL,ioos:station:DISL:MBLA:1,2009-03-02T09:30:00Z,30.4367,-88.0117,14.2,13.24,344.6,-9999.0,'1111122,1111122,1111122' 
DISL,ioos:station:DISL:MBLA:1,2009-03-02T10:00:00Z,30.4367,-88.0117,14.2,13.09,337.4,-9999.0,'1111122,1111122,1111122' 
DISL,ioos:station:DISL:MBLA:1,2009-03-02T10:30:00Z,30.4367,-88.0117,14.2,12.28,350.3,-9999.0,'1111122,1111122,1111122' 
DISL,ioos:station:DISL:MBLA:1,2009-03-02T11:00:00Z,30.4367,-88.0117,14.2,12.26,340.0,-9999.0,'1111122,1111122,1111122' 
DISL,ioos:station:DISL:MBLA:1,2009-03-02T11:30:00Z,30.4367,-88.0117,14.2,12.36,340.6,-9999.0,'1111122,1111122,1111122' 
DISL,ioos:station:DISL:MBLA:1,2009-03-02T12:00:00Z,30.4367,-88.0117,14.2,11.9,347.4,-9999.0,'1111122,1111122,1111122' 
DISL,ioos:station:DISL:MBLA:1,2009-03-02T12:30:00Z,30.4367,-88.0117,14.2,13.5,358.1,-9999.0,'1111122,1111122,1111122' 
DISL,ioos:station:DISL:MBLA:1,2009-03-02T13:00:00Z,30.4367,-88.0117,14.2,13.24,352.4,-9999.0,'1111122,1111122,1111122' 
DISL,ioos:station:DISL:MBLA:1,2009-03-02T13:30:00Z,30.4367,-88.0117,14.2,13.1,357.9,-9999.0,'1111122,1111122,1111122' 
DISL,ioos:station:DISL:MBLA:1,2009-03-02T14:00:00Z,30.4367,-88.0117,14.2,12.14,352.2,-9999.0,'1111122,1111122,1111122' 
DISL,ioos:station:DISL:MBLA:1,2009-03-02T14:30:00Z,30.4367,-88.0117,14.2,11.49,359.6,-9999.0,'1111122,1111122,1111122' 
DISL,ioos:station:DISL:MBLA:1,2009-03-02T15:00:00Z,30.4367,-88.0117,14.2,10.55,355.7,-9999.0,'1111122,1111122,1111122' 
DISL,ioos:station:DISL:MBLA:1,2009-03-02T15:30:00Z,30.4367,-88.0117,14.2,9.13,352.2,-9999.0,'1111122,1111122,1111122' 
DISL,ioos:station:DISL:MBLA:1,2009-03-02T16:00:00Z,30.4367,-88.0117,14.2,7.93,349.9,-9999.0,'1111122,1111122,1111122' 
DISL,ioos:station:DISL:MBLA:1,2009-03-02T16:30:00Z,30.4367,-88.0117,14.2,8.23,348.4,-9999.0,'1111122,1111122,1111122' 
DISL,ioos:station:DISL:MBLA:1,2009-03-02T17:00:00Z,30.4367,-88.0117,14.2,6.39,353.2,-9999.0,'1111122,1111122,1111122' 
DISL,ioos:station:DISL:MBLA:1,2009-03-02T17:30:00Z,30.4367,-88.0117,14.2,6.59,356.3,-9999.0,'1111122,1111122,1111122' 
DISL,ioos:station:DISL:MBLA:1,2009-03-02T18:00:00Z,30.4367,-88.0117,14.2,5.78,2.156,-9999.0,'1111122,1111122,1111122' 
DISL,ioos:station:DISL:MBLA:1,2009-03-02T18:30:00Z,30.4367,-88.0117,14.2,5.14,4.624,-9999.0,'1111122,1111122,1111122' 
DISL,ioos:station:DISL:MBLA:1,2009-03-02T19:00:00Z,30.4367,-88.0117,14.2,6.25,2.378,-9999.0,'1111122,1111122,1111122' 
DISL,ioos:station:DISL:MBLA:1,2009-03-02T19:30:00Z,30.4367,-88.0117,14.2,6.55,350.4,-9999.0,'1111122,1111122,1111122' 
DISL,ioos:station:DISL:MBLA:1,2009-03-02T20:00:00Z,30.4367,-88.0117,14.2,6.82,343.5,-9999.0,'1111122,1111122,1111122' 
DISL,ioos:station:DISL:MBLA:1,2009-03-02T20:30:00Z,30.4367,-88.0117,14.2,7.71,341.2,-9999.0,'1111122,1111122,1111122' 
DISL,ioos:station:DISL:MBLA:1,2009-03-02T21:00:00Z,30.4367,-88.0117,14.2,7.27,345.7,-9999.0,'1111122,1111122,1111122' 
DISL,ioos:station:DISL:MBLA:1,2009-03-02T21:30:00Z,30.4367,-88.0117,14.2,8.03,352.1,-9999.0,'1111122,1111122,1111122' 
DISL,ioos:station:DISL:MBLA:1,2009-03-02T22:00:00Z,30.4367,-88.0117,14.2,7.21,352.2,-9999.0,'1111122,1111122,1111122' 
DISL,ioos:station:DISL:MBLA:1,2009-03-02T22:30:00Z,30.4367,-88.0117,14.2,7.67,344.8,-9999.0,'1111122,1111122,1111122' 
DISL,ioos:station:DISL:MBLA:1,2009-03-02T23:00:00Z,30.4367,-88.0117,14.2,7.44,345.4,-9999.0,'1111122,1111122,1111122' 
DISL,ioos:station:DISL:MBLA:1,2009-03-02T23:30:00Z,30.4367,-88.0117,14.2,8.17,344.8,-9999.0,'1111122,1111122,1111122' 
DISL,ioos:station:DISL:MBLA:1,2009-03-03T00:00:00Z,30.4367,-88.0117,14.2,8.08,345.7,-9999.0,'1111122,1111122,1111122' 
DISL,ioos:station:DISL:MBLA:1,2009-03-03T00:30:00Z,30.4367,-88.0117,14.2,8.0,349.2,-9999.0,'1111122,1111122,1111122' 
DISL,ioos:station:DISL:MBLA:1,2009-03-03T01:00:00Z,30.4367,-88.0117,14.2,8.79,8.95,-9999.0,'1111122,1111122,1111122' 
DISL,ioos:station:DISL:MBLA:1,2009-03-03T01:30:00Z,30.4367,-88.0117,14.2,9.76,359.8,-9999.0,'1111122,1111122,1111122' 
DISL,ioos:station:DISL:MBLA:1,2009-03-03T02:00:00Z,30.4367,-88.0117,14.2,8.15,353.7,-9999.0,'1111122,1111122,1111122' 
DISL,ioos:station:DISL:MBLA:1,2009-03-03T02:30:00Z,30.4367,-88.0117,14.2,8.72,357.6,-9999.0,'1111122,1111122,1111122' 
DISL,ioos:station:DISL:MBLA:1,2009-03-03T03:00:00Z,30.4367,-88.0117,14.2,8.46,29.4,-9999.0,'1111122,1111122,1111122' 
DISL,ioos:station:DISL:MBLA:1,2009-03-03T03:30:00Z,30.4367,-88.0117,14.2,10.0,15.03,-9999.0,'1111122,1111122,1111122' 
DISL,ioos:station:DISL:MBLA:1,2009-03-03T04:00:00Z,30.4367,-88.0117,14.2,10.83,13.64,-9999.0,'1111122,1111122,1111122' 
DISL,ioos:station:DISL:MBLA:1,2009-03-03T04:30:00Z,30.4367,-88.0117,14.2,9.27,4.46,-9999.0,'1111122,1111122,1111122' 
DISL,ioos:station:DISL:MBLA:1,2009-03-03T05:00:00Z,30.4367,-88.0117,14.2,8.24,16.76,-9999.0,'1111122,1111122,1111122' 
DISL,ioos:station:DISL:MBLA:1,2009-03-03T05:30:00Z,30.4367,-88.0117,14.2,9.53,16.93,-9999.0,'1111122,1111122,1111122' 
DISL,ioos:station:DISL:MBLA:1,2009-03-03T06:00:00Z,30.4367,-88.0117,14.2,9.82,15.0,-9999.0,'1111122,1111122,1111122' 
DISL,ioos:station:DISL:MBLA:1,2009-03-03T06:30:00Z,30.4367,-88.0117,14.2,10.62,15.78,-9999.0,'1111122,1111122,1111122' 
DISL,ioos:station:DISL:MBLA:1,2009-03-03T07:00:00Z,30.4367,-88.0117,14.2,10.82,20.57,-9999.0,'1111122,1111122,1111122' 
DISL,ioos:station:DISL:MBLA:1,2009-03-03T07:30:00Z,30.4367,-88.0117,14.2,10.25,14.22,-9999.0,'1111122,1111122,1111122' 
DISL,ioos:station:DISL:MBLA:1,2009-03-03T08:00:00Z,30.4367,-88.0117,14.2,11.32,21.52,-9999.0,'1111122,1111122,1111122' 
DISL,ioos:station:DISL:MBLA:1,2009-03-03T08:30:00Z,30.4367,-88.0117,14.2,10.28,23.45,-9999.0,'1111122,1111122,1111122' 
DISL,ioos:station:DISL:MBLA:1,2009-03-03T09:00:00Z,30.4367,-88.0117,14.2,11.01,24.19,-9999.0,'1111122,1111122,1111122' 
DISL,ioos:station:DISL:MBLA:1,2009-03-03T09:30:00Z,30.4367,-88.0117,14.2,10.31,25.22,-9999.0,'1111122,1111122,1111122' 
DISL,ioos:station:DISL:MBLA:1,2009-03-03T10:00:00Z,30.4367,-88.0117,14.2,10.09,28.59,-9999.0,'1111122,1111122,1111122' 
DISL,ioos:station:DISL:MBLA:1,2009-03-03T10:30:00Z,30.4367,-88.0117,14.2,10.38,26.46,-9999.0,'1111122,1111122,1111122' 
DISL,ioos:station:DISL:MBLA:1,2009-03-03T11:00:00Z,30.4367,-88.0117,14.2,11.23,29.44,-9999.0,'1111122,1111122,1111122' 
DISL,ioos:station:DISL:MBLA:1,2009-03-03T11:30:00Z,30.4367,-88.0117,14.2,11.17,28.0,-9999.0,'1111122,1111122,1111122' 
DISL,ioos:station:DISL:MBLA:1,2009-03-03T12:00:00Z,30.4367,-88.0117,14.2,10.46,24.9,-9999.0,'1111122,1111122,1111122' 
DISL,ioos:station:DISL:MBLA:1,2009-03-03T12:30:00Z,30.4367,-88.0117,14.2,9.9,18.42,-9999.0,'1111122,1111122,1111122' 
DISL,ioos:station:DISL:MBLA:1,2009-03-03T13:00:00Z,30.4367,-88.0117,14.2,9.73,20.49,-9999.0,'1111122,1111122,1111122' 
DISL,ioos:station:DISL:MBLA:1,2009-03-03T13:30:00Z,30.4367,-88.0117,14.2,9.82,17.84,-9999.0,'1111122,1111122,1111122' 
DISL,ioos:station:DISL:MBLA:1,2009-03-03T14:00:00Z,30.4367,-88.0117,14.2,10.43,24.28,-9999.0,'1111122,1111122,1111122' 
DISL,ioos:station:DISL:MBLA:1,2009-03-03T14:30:00Z,30.4367,-88.0117,14.2,7.94,27.08,-9999.0,'1111122,1111122,1111122' 
DISL,ioos:station:DISL:MBLA:1,2009-03-03T15:00:00Z,30.4367,-88.0117,14.2,7.41,31.88,-9999.0,'1111122,1111122,1111122' 
DISL,ioos:station:DISL:MBLA:1,2009-03-03T15:30:00Z,30.4367,-88.0117,14.2,5.13,22.94,-9999.0,'1111122,1111122,1111122' 
DISL,ioos:station:DISL:MBLA:1,2009-03-03T16:00:00Z,30.4367,-88.0117,14.2,4.91,20.47,-9999.0,'1111122,1111122,1111122' 
DISL,ioos:station:DISL:MBLA:1,2009-03-03T16:30:00Z,30.4367,-88.0117,14.2,4.88,10.0,-9999.0,'1111122,1111122,1111122' 
DISL,ioos:station:DISL:MBLA:1,2009-03-03T17:00:00Z,30.4367,-88.0117,14.2,5.19,350.3,-9999.0,'1111122,1111122,1111122' 
DISL,ioos:station:DISL:MBLA:1,2009-03-03T17:30:00Z,30.4367,-88.0117,14.2,4.74,339.4,-9999.0,'1111122,1111122,1111122' 
DISL,ioos:station:DISL:MBLA:1,2009-03-03T18:00:00Z,30.4367,-88.0117,14.2,4.45,348.5,-9999.0,'1111122,1111122,1111122' 
DISL,ioos:station:DISL:MBLA:1,2009-03-03T18:30:00Z,30.4367,-88.0117,14.2,4.56,343.0,-9999.0,'1111122,1111122,1111122' 
DISL,ioos:station:DISL:MBLA:1,2009-03-03T19:00:00Z,30.4367,-88.0117,14.2,4.07,340.1,-9999.0,'1111122,1111122,1111122' 
DISL,ioos:station:DISL:MBLA:1,2009-03-03T19:30:00Z,30.4367,-88.0117,14.2,4.52,344.0,-9999.0,'1111122,1111122,1111122' 
DISL,ioos:station:DISL:MBLA:1,2009-03-03T20:00:00Z,30.4367,-88.0117,14.2,4.83,349.4,-9999.0,'1111122,1111122,1111122' 
DISL,ioos:station:DISL:MBLA:1,2009-03-03T20:30:00Z,30.4367,-88.0117,14.2,4.5,347.0,-9999.0,'1111122,1111122,1111122' 
DISL,ioos:station:DISL:MBLA:1,2009-03-03T21:00:00Z,30.4367,-88.0117,14.2,3.7,349.9,-9999.0,'1111122,1111122,1111122' 
DISL,ioos:station:DISL:MBLA:1,2009-03-03T21:30:00Z,30.4367,-88.0117,14.2,3.33,1.977,-9999.0,'1111122,1111122,1111122' 
DISL,ioos:station:DISL:MBLA:1,2009-03-03T22:00:00Z,30.4367,-88.0117,14.2,2.77,3.995,-9999.0,'1111122,1111122,1111122' 
DISL,ioos:station:DISL:MBLA:1,2009-03-03T22:30:00Z,30.4367,-88.0117,14.2,2.78,0.247,-9999.0,'1111122,1111122,1111122' 
DISL,ioos:station:DISL:MBLA:1,2009-03-03T23:00:00Z,30.4367,-88.0117,14.2,2.75,346.7,-9999.0,'1111122,1111122,1111122' 
DISL,ioos:station:DISL:MBLA:1,2009-03-03T23:30:00Z,30.4367,-88.0117,14.2,2.44,337.1,-9999.0,'1111122,1111122,1111122' 
DISL,ioos:station:DISL:MBLA:1,2009-03-04T00:00:00Z,30.4367,-88.0117,14.2,2.65,322.5,-9999.0,'1111122,1111122,1111122' 
DISL,ioos:station:DISL:MBLA:1,2009-03-04T00:30:00Z,30.4367,-88.0117,14.2,2.7,339.4,-9999.0,'1111122,1111122,1111122' 
DISL,ioos:station:DISL:MBLA:1,2009-03-04T01:00:00Z,30.4367,-88.0117,14.2,2.92,181.9,-9999.0,'1111122,1111122,1111122' 
DISL,ioos:station:DISL:MBLA:1,2009-03-04T01:30:00Z,30.4367,-88.0117,14.2,4.38,148.4,-9999.0,'1111122,1111122,1111122' 
DISL,ioos:station:DISL:MBLA:1,2009-03-04T02:00:00Z,30.4367,-88.0117,14.2,3.6,128.5,-9999.0,'1111122,1111122,1111122' 
DISL,ioos:station:DISL:MBLA:1,2009-03-04T02:30:00Z,30.4367,-88.0117,14.2,3.86,121.7,-9999.0,'1111122,1111122,1111122' 
DISL,ioos:station:DISL:MBLA:1,2009-03-04T03:00:00Z,30.4367,-88.0117,14.2,3.09,110.6,-9999.0,'1111122,1111122,1111122' 
DISL,ioos:station:DISL:MBLA:1,2009-03-04T03:30:00Z,30.4367,-88.0117,14.2,2.57,90.3,-9999.0,'1111122,1111122,1111122' 
DISL,ioos:station:DISL:MBLA:1,2009-03-04T04:00:00Z,30.4367,-88.0117,14.2,2.22,82.0,-9999.0,'1111122,1111122,1111122' 
DISL,ioos:station:DISL:MBLA:1,2009-03-04T04:30:00Z,30.4367,-88.0117,14.2,2.82,87.0,-9999.0,'1111122,1111122,1111122' 
DISL,ioos:station:DISL:MBLA:1,2009-03-04T05:00:00Z,30.4367,-88.0117,14.2,2.77,96.1,-9999.0,'1111122,1111122,1111122' 
DISL,ioos:station:DISL:MBLA:1,2009-03-04T05:30:00Z,30.4367,-88.0117,14.2,3.05,75.5,-9999.0,'1111122,1111122,1111122' 
DISL,ioos:station:DISL:MBLA:1,2009-03-04T06:00:00Z,30.4367,-88.0117,14.2,3.49,64.02,-9999.0,'1111122,1111122,1111122' 
DISL,ioos:station:DISL:MBLA:1,2009-03-04T06:30:00Z,30.4367,-88.0117,14.2,2.43,67.46,-9999.0,'1111122,1111122,1111122' 
DISL,ioos:station:DISL:MBLA:1,2009-03-04T07:00:00Z,30.4367,-88.0117,14.2,2.56,89.2,-9999.0,'1111122,1111122,1111122' 
DISL,ioos:station:DISL:MBLA:1,2009-03-04T07:30:00Z,30.4367,-88.0117,14.2,3.58,92.9,-9999.0,'1111122,1111122,1111122' 
DISL,ioos:station:DISL:MBLA:1,2009-03-04T08:00:00Z,30.4367,-88.0117,14.2,5.41,81.8,-9999.0,'1111122,1111122,1111122' 
DISL,ioos:station:DISL:MBLA:1,2009-03-04T08:30:00Z,30.4367,-88.0117,14.2,6.03,74.1,-9999.0,'1111122,1111122,1111122' 
DISL,ioos:station:DISL:MBLA:1,2009-03-04T09:00:00Z,30.4367,-88.0117,14.2,6.79,80.6,-9999.0,'1111122,1111122,1111122' 
DISL,ioos:station:DISL:MBLA:1,2009-03-04T09:30:00Z,30.4367,-88.0117,14.2,6.74,80.8,-9999.0,'1111122,1111122,1111122' 
DISL,ioos:station:DISL:MBLA:1,2009-03-04T10:00:00Z,30.4367,-88.0117,14.2,6.47,82.7,-9999.0,'1111122,1111122,1111122' 
DISL,ioos:station:DISL:MBLA:1,2009-03-04T10:30:00Z,30.4367,-88.0117,14.2,6.34,77.7,-9999.0,'1111122,1111122,1111122' 
DISL,ioos:station:DISL:MBLA:1,2009-03-04T11:00:00Z,30.4367,-88.0117,14.2,7.64,75.4,-9999.0,'1111122,1111122,1111122' 
DISL,ioos:station:DISL:MBLA:1,2009-03-04T11:30:00Z,30.4367,-88.0117,14.2,7.85,75.7,-9999.0,'1111122,1111122,1111122' 
DISL,ioos:station:DISL:MBLA:1,2009-03-04T12:00:00Z,30.4367,-88.0117,14.2,7.52,72.5,-9999.0,'1111122,1111122,1111122' 
DISL,ioos:station:DISL:MBLA:1,2009-03-04T12:30:00Z,30.4367,-88.0117,14.2,7.71,69.95,-9999.0,'1111122,1111122,1111122' 
DISL,ioos:station:DISL:MBLA:1,2009-03-04T13:00:00Z,30.4367,-88.0117,14.2,8.49,70.6,-9999.0,'1111122,1111122,1111122' 
DISL,ioos:station:DISL:MBLA:1,2009-03-04T13:30:00Z,30.4367,-88.0117,14.2,8.7,73.9,-9999.0,'1111122,1111122,1111122' 
DISL,ioos:station:DISL:MBLA:1,2009-03-04T14:00:00Z,30.4367,-88.0117,14.2,8.41,77.5,-9999.0,'1111122,1111122,1111122' 
DISL,ioos:station:DISL:MBLA:1,2009-03-04T14:30:00Z,30.4367,-88.0117,14.2,7.5,75.7,-9999.0,'1111122,1111122,1111122' 
DISL,ioos:station:DISL:MBLA:1,2009-03-04T15:00:00Z,30.4367,-88.0117,14.2,6.47,81.0,-9999.0,'1111122,1111122,1111122' 
DISL,ioos:station:DISL:MBLA:1,2009-03-04T15:30:00Z,30.4367,-88.0117,14.2,5.12,81.2,-9999.0,'1111122,1111122,1111122' 
DISL,ioos:station:DISL:MBLA:1,2009-03-04T16:00:00Z,30.4367,-88.0117,14.2,4.4,91.1,-9999.0,'1111122,1111122,1111122' 
DISL,ioos:station:DISL:MBLA:1,2009-03-04T16:30:00Z,30.4367,-88.0117,14.2,4.05,112.7,-9999.0,'1111122,1111122,1111122' 
DISL,ioos:station:DISL:MBLA:1,2009-03-04T17:00:00Z,30.4367,-88.0117,14.2,4.71,124.6,-9999.0,'1111122,1111122,1111122' 
DISL,ioos:station:DISL:MBLA:1,2009-03-04T17:30:00Z,30.4367,-88.0117,14.2,5.54,132.3,-9999.0,'1111122,1111122,1111122' 
DISL,ioos:station:DISL:MBLA:1,2009-03-04T18:00:00Z,30.4367,-88.0117,14.2,5.63,137.7,-9999.0,'1111122,1111122,1111122' 
DISL,ioos:station:DISL:MBLA:1,2009-03-04T18:30:00Z,30.4367,-88.0117,14.2,5.49,148.0,-9999.0,'1111122,1111122,1111122' 
DISL,ioos:station:DISL:MBLA:1,2009-03-04T19:00:00Z,30.4367,-88.0117,14.2,5.83,148.0,-9999.0,'1111122,1111122,1111122' 
DISL,ioos:station:DISL:MBLA:1,2009-03-04T19:30:00Z,30.4367,-88.0117,14.2,5.97,141.3,-9999.0,'1111122,1111122,1111122' 
DISL,ioos:station:DISL:MBLA:1,2009-03-04T20:00:00Z,30.4367,-88.0117,14.2,6.02,142.7,-9999.0,'1111122,1111122,1111122' 
DISL,ioos:station:DISL:MBLA:1,2009-03-04T20:30:00Z,30.4367,-88.0117,14.2,6.43,140.2,-9999.0,'1111122,1111122,1111122' 
DISL,ioos:station:DISL:MBLA:1,2009-03-04T21:00:00Z,30.4367,-88.0117,14.2,6.32,134.4,-9999.0,'1111122,1111122,1111122' 
DISL,ioos:station:DISL:MBLA:1,2009-03-04T21:30:00Z,30.4367,-88.0117,14.2,5.66,135.4,-9999.0,'1111122,1111122,1111122' 
DISL,ioos:station:DISL:MBLA:1,2009-03-04T22:00:00Z,30.4367,-88.0117,14.2,6.33,142.7,-9999.0,'1111122,1111122,1111122' 
DISL,ioos:station:DISL:MBLA:1,2009-03-04T22:30:00Z,30.4367,-88.0117,14.2,6.37,143.3,-9999.0,'1111122,1111122,1111122' 
DISL,ioos:station:DISL:MBLA:1,2009-03-04T23:00:00Z,30.4367,-88.0117,14.2,6.2,138.1,-9999.0,'1111122,1111122,1111122' 
DISL,ioos:station:DISL:MBLA:1,2009-03-04T23:30:00Z,30.4367,-88.0117,14.2,6.46,136.7,-9999.0,'1111122,1111122,1111122' 
DISL,ioos:station:DISL:MBLA:1,2009-03-05T00:00:00Z,30.4367,-88.0117,14.2,6.53,129.7,-9999.0,'1111122,1111122,1111122' 
DISL,ioos:station:DISL:MBLA:1,2009-03-05T00:30:00Z,30.4367,-88.0117,14.2,6.03,128.1,-9999.0,'1111122,1111122,1111122' 
DISL,ioos:station:DISL:MBLA:1,2009-03-05T01:00:00Z,30.4367,-88.0117,14.2,6.0,124.5,-9999.0,'1111122,1111122,1111122' 
DISL,ioos:station:DISL:MBLA:1,2009-03-05T01:30:00Z,30.4367,-88.0117,14.2,4.59,115.6,-9999.0,'1111122,1111122,1111122' 
DISL,ioos:station:DISL:MBLA:1,2009-03-05T02:00:00Z,30.4367,-88.0117,14.2,4.25,119.4,-9999.0,'1111122,1111122,1111122' 
DISL,ioos:station:DISL:MBLA:1,2009-03-05T02:30:00Z,30.4367,-88.0117,14.2,4.69,116.6,-9999.0,'1111122,1111122,1111122' 
DISL,ioos:station:DISL:MBLA:1,2009-03-05T03:00:00Z,30.4367,-88.0117,14.2,4.74,128.7,-9999.0,'1111122,1111122,1111122' 
DISL,ioos:station:DISL:MBLA:1,2009-03-05T03:30:00Z,30.4367,-88.0117,14.2,3.91,125.4,-9999.0,'1111122,1111122,1111122' 